Regional Weather Roundup
Issued by NWS

Current Version | Previous Version | Text Only | Print | Product List | Glossary Off
Versions: 1 2 3 4 5 6 7 8 9 10 11 12 13 14 15 16 17 18 19 20 21 22 23 24 25 26 27 28 29 30 31 32 33 34 35 36 37 38 39 40 41 42 43 44 45 46 47 48 49 50

000
ASUS44 KJAN 010803
RWRMS

MISSISSIPPI HOURLY WEATHER ROUNDUP
NATIONAL WEATHER SERVICE JACKSON MS
300 AM CDT TUE SEP 01 2015

NOTE: "FAIR: INDICATES FEW OR NO CLOUDS BELOW 12,000 FEET WITH NO
SIGNIFICANT WEATHER AND/OR OBSTRUCTIONS TO VISIBILITY.

MSZ001>002-007>008-010>013-018>021-025>028-034>036-010900-
NORTHWEST MISSISSIPPI

CITY           SKY/WX    TMP DP  RH WIND       PRES   REMARKS
CLARKSDALE     FAIR      73  72  94 SE3       30.07R
CLEVELAND      FAIR      74  71  89 CALM      30.05S
GREENWOOD      MOCLDY    76  67  73 E6        30.05S
GREENVILLE     CLEAR     73  69  87 CALM      30.05R
OLIVE BRANCH   CLEAR     70  70 100 CALM      30.08S
OXFORD         FAIR      66  66 100 E5        30.10R
TUNICA         MOSUNNY   70  68  94 CALM      30.08R
$$

MSZ003>006-009-014>017-022>024-029>033-037>039-010900-
NORTHEAST MISSISSIPPI

CITY           SKY/WX    TMP DP  RH WIND       PRES   REMARKS
COLUMBUS AFB   CLEAR     67  65  96 CALM      30.07R
CORINTH        FOG       66  64  94 CALM      30.09R VSB<1/4
GOLDN TRIANGLE CLEAR     70  64  83 CALM      30.07S
STARKVILLE     FAIR      68  66  94 CALM      30.08R
TUPELO         CLEAR     70  68  93 CALM      30.08S
$$

MSZ040-058-010900-
CENTRAL MISSISSIPPI

CITY           SKY/WX    TMP DP  RH WIND       PRES   REMARKS
JACKSON INTL   CLEAR     74  67  78 S3        30.05S
JACKSON HAWKNS CLEAR     76  67  73 CALM      30.06S
MERIDIAN KEY   CLEAR     71  69  93 CALM      30.06S
MERIDIAN NAS   CLEAR     71  68  90 CALM      30.07R
VICKSBURG      PTCLDY    71  67  87 CALM      30.05S
$$

MSZ059>079-010900-
SOUTH MISSISSIPPI

CITY           SKY/WX    TMP DP  RH WIND       PRES   REMARKS
BROOKHAVEN       N/A     70  68  94 CALM      30.08F
HATTIESBURG    PTCLDY    73  68  84 CALM      30.06S
MCCOMB         PTCLDY    71  70  96 CALM      30.07S
NATCHEZ        PTCLDY    72  66  83 CALM      30.07S
PINE BELT      PTCLDY    73  64  73 CALM      30.07S
$$

MSZ080>082-010900-
COASTAL MISSISSIPPI

CITY           SKY/WX    TMP DP  RH WIND       PRES   REMARKS
BILOXI         CLEAR     76  73  88 CALM      30.03S
PASCAGOULA     PTCLDY    69  68  96 CALM      30.04S
GULFPORT       CLEAR     73  69  87 CALM      30.03F
$$


USA.gov is the U.S. government's official web portal to all federal, state and local government web resources and services.